QPF
0.02 0.03 0.04 0.03 0.02 0.01 0.01 0.01 0.03 0.02 0.02 0.04 0.02 0.04 0.03 0.01 0.00 0.00 0.01 0.01 0.02 0.02 0.02 0.03 0.03 0.03 0.04 0.05 0.05 0.06 0.06 0.08 0.10 0.08 0.08 0.08 0.06 0.05 0.04 0.04 0.03 0.02 0.01 0.01
0.02 0.02 0.01 0.01 0.02 0.02 0.01 0.01 0.01 0.02 0.03 0.04 0.04 0.02 0.02 0.02 0.00 0.00 0.00 0.01 0.02 0.02 0.02 0.03 0.03 0.02 0.04 0.05 0.04 0.04 0.04 0.05 0.08 0.09 0.08 0.08 0.07 0.05 0.04 0.04 0.03 0.03 0.02 0.01
0.04 0.01 0.01 0.01 0.01 0.02 0.02 0.01 0.03 0.05 0.04 0.05 0.05 0.03 0.02 0.03 0.01 0.00 0.00 0.01 0.02 0.02 0.02 0.03 0.04 0.04 0.04 0.04 0.04 0.04 0.05 0.06 0.05 0.06 0.07 0.07 0.08 0.05 0.05 0.04 0.04 0.03 0.03 0.02
0.05 0.04 0.04 0.02 0.00 0.00 0.02 0.01 0.01 0.05 0.05 0.04 0.04 0.02 0.01 0.02 0.04 0.02 0.02 0.02 0.03 0.03 0.03 0.04 0.04 0.04 0.04 0.04 0.04 0.04 0.05 0.04 0.03 0.03 0.04 0.05 0.06 0.04 0.04 0.04 0.04 0.04 0.03 0.03
0.06 0.09 0.06 0.04 0.02 0.01 0.02 0.02 0.01 0.03 0.06 0.05 0.03 0.02 0.02 0.02 0.04 0.04 0.03 0.03 0.02 0.01 0.04 0.08 0.07 0.04 0.04 0.05 0.05 0.04 0.05 0.04 0.03 0.03 0.03 0.03 0.03 0.03 0.03 0.03 0.04 0.04 0.04 0.05
0.06 0.09 0.11 0.07 0.02 0.01 0.03 0.06 0.03 0.02 0.03 0.02 0.03 0.08 0.07 0.03 0.02 0.02 0.03 0.04 0.03 0.02 0.03 0.06 0.08 0.09 0.07 0.06 0.06 0.05 0.06 0.05 0.06 0.06 0.05 0.04 0.04 0.05 0.05 0.04 0.04 0.05 0.05 0.06
0.10 0.10 0.10 0.08 0.04 0.02 0.07 0.10 0.05 0.03 0.04 0.03 0.05 0.07 0.07 0.03 0.02 0.02 0.02 0.03 0.02 0.04 0.06 0.07 0.06 0.08 0.08 0.08 0.08 0.06 0.07 0.08 0.07 0.08 0.08 0.10 0.10 0.11 0.11 0.08 0.07 0.07 0.07 0.08
0.10 0.13 0.13 0.08 0.10 0.10 0.09 0.04 0.03 0.04 0.04 0.06 0.05 0.04 0.04 0.03 0.02 0.01 0.01 0.02 0.03 0.05 0.08 0.09 0.08 0.07 0.06 0.08 0.08 0.07 0.08 0.07 0.06 0.06 0.07 0.07 0.08 0.08 0.09 0.09 0.08 0.09 0.09 0.09
0.10 0.13 0.12 0.07 0.11 0.11 0.05 0.03 0.03 0.04 0.04 0.05 0.05 0.04 0.03 0.03 0.03 0.02 0.03 0.03 0.03 0.04 0.08 0.10 0.10 0.07 0.06 0.06 0.08 0.08 0.08 0.08 0.06 0.05 0.06 0.08 0.09 0.08 0.07 0.08 0.08 0.09 0.08 0.08
0.12 0.13 0.10 0.06 0.05 0.06 0.04 0.04 0.04 0.03 0.04 0.04 0.04 0.03 0.04 0.04 0.04 0.04 0.05 0.05 0.05 0.06 0.07 0.09 0.11 0.11 0.09 0.06 0.06 0.07 0.07 0.07 0.07 0.06 0.06 0.07 0.08 0.07 0.07 0.08 0.09 0.10 0.10 0.11
0.12 0.13 0.11 0.08 0.06 0.05 0.06 0.05 0.04 0.05 0.05 0.05 0.05 0.05 0.04 0.03 0.03 0.03 0.06 0.06 0.06 0.07 0.08 0.08 0.08 0.09 0.09 0.08 0.08 0.08 0.10 0.12 0.10 0.08 0.07 0.06 0.05 0.06 0.07 0.07 0.08 0.09 0.09 0.10
0.12 0.11 0.11 0.11 0.10 0.07 0.08 0.06 0.05 0.07 0.06 0.04 0.05 0.06 0.05 0.04 0.03 0.03 0.04 0.05 0.05 0.05 0.06 0.06 0.05 0.05 0.06 0.07 0.07 0.07 0.08 0.08 0.08 0.09 0.10 0.10 0.11 0.11 0.11 0.10 0.09 0.08 0.06 0.06
0.08 0.10 0.10 0.11 0.11 0.09 0.08 0.05 0.05 0.05 0.05 0.04 0.05 0.06 0.06 0.05 0.04 0.04 0.04 0.05 0.05 0.05 0.05 0.06 0.05 0.05 0.05 0.07 0.08 0.08 0.08 0.08 0.08 0.08 0.09 0.10 0.10 0.11 0.09 0.09 0.08 0.06 0.06 0.05
0.09 0.09 0.10 0.09 0.11 0.12 0.09 0.04 0.06 0.05 0.06 0.06 0.05 0.05 0.04 0.05 0.05 0.04 0.05 0.07 0.07 0.06 0.06 0.06 0.06 0.05 0.05 0.07 0.09 0.09 0.10 0.11 0.10 0.07 0.06 0.06 0.06 0.07 0.07 0.07 0.07 0.06 0.05 0.05
0.06 0.09 0.09 0.06 0.06 0.07 0.06 0.04 0.06 0.06 0.06 0.07 0.05 0.05 0.04 0.04 0.05 0.04 0.04 0.06 0.07 0.07 0.07 0.08 0.07 0.06 0.05 0.06 0.08 0.09 0.09 0.08 0.07 0.07 0.05 0.05 0.05 0.06 0.06 0.06 0.06 0.05 0.04 0.04
0.04 0.06 0.05 0.04 0.04 0.04 0.04 0.03 0.04 0.04 0.04 0.05 0.05 0.05 0.05 0.04 0.04 0.04 0.04 0.06 0.06 0.07 0.06 0.06 0.08 0.07 0.06 0.06 0.08 0.09 0.10 0.11 0.09 0.07 0.06 0.06 0.06 0.07 0.07 0.08 0.08 0.07 0.05 0.03
0.03 0.04 0.04 0.03 0.03 0.02 0.04 0.04 0.03 0.02 0.02 0.03 0.05 0.06 0.06 0.05 0.04 0.04 0.04 0.05 0.05 0.06 0.05 0.05 0.05 0.05 0.04 0.05 0.06 0.07 0.07 0.08 0.09 0.07 0.07 0.06 0.07 0.07 0.07 0.07 0.08 0.08 0.09 0.07
0.04 0.04 0.05 0.04 0.03 0.02 0.03 0.04 0.04 0.05 0.04 0.04 0.05 0.07 0.06 0.05 0.05 0.05 0.05 0.06 0.05 0.05 0.05 0.05 0.04 0.03 0.03 0.03 0.04 0.05 0.06 0.05 0.05 0.05 0.05 0.05 0.06 0.06 0.06 0.06 0.06 0.06 0.06 0.07
0.05 0.04 0.05 0.05 0.04 0.03 0.02 0.03 0.04 0.06 0.08 0.06 0.06 0.06 0.05 0.04 0.04 0.05 0.06 0.06 0.06 0.06 0.05 0.06 0.06 0.05 0.04 0.04 0.04 0.05 0.06 0.05 0.05 0.05 0.05 0.05 0.05 0.05 0.05 0.05 0.06 0.06 0.06 0.05
0.07 0.05 0.04 0.05 0.05 0.04 0.04 0.03 0.03 0.05 0.07 0.07 0.06 0.05 0.03 0.03 0.03 0.03 0.04 0.05 0.06 0.06 0.05 0.05 0.05 0.06 0.06 0.05 0.04 0.04 0.05 0.04 0.04 0.05 0.05 0.06 0.06 0.06 0.05 0.05 0.05 0.05 0.05 0.04
0.08 0.07 0.06 0.04 0.04 0.05 0.05 0.03 0.04 0.05 0.06 0.07 0.06 0.04 0.02 0.02 0.02 0.02 0.02 0.03 0.03 0.03 0.02 0.02 0.03 0.04 0.06 0.05 0.04 0.04 0.03 0.03 0.03 0.03 0.04 0.05 0.06 0.06 0.05 0.04 0.03 0.03 0.02 0.01
0.08 0.09 0.08 0.05 0.04 0.05 0.05 0.05 0.04 0.04 0.04 0.03 0.03 0.02 0.01 0.01 0.01 0.02 0.02 0.03 0.02 0.01 0.02 0.02 0.02 0.03 0.05 0.05 0.05 0.05 0.04 0.04 0.03 0.03 0.02 0.02 0.03 0.03 0.02 0.01 0.01 0.01 0.00 0.00
0.09 0.09 0.08 0.06 0.04 0.04 0.05 0.04 0.04 0.04 0.04 0.03 0.03 0.02 0.02 0.02 0.02 0.02 0.02 0.02 0.02 0.01 0.01 0.01 0.02 0.03 0.04 0.04 0.04 0.04 0.04 0.04 0.04 0.04 0.04 0.03 0.02 0.02 0.01 0.01 0.00 0.00 0.00 0.00
0.11 0.09 0.07 0.05 0.04 0.04 0.04 0.04 0.03 0.03 0.02 0.02 0.02 0.02 0.03 0.02 0.02 0.02 0.03 0.02 0.01 0.01 0.00 0.00 0.00 0.01 0.01 0.02 0.03 0.03 0.03 0.02 0.02 0.02 0.02 0.02 0.02 0.01 0.01 0.01 0.00 0.00 0.00 0.00
0.11 0.09 0.08 0.07 0.06 0.05 0.05 0.04 0.03 0.03 0.03 0.02 0.02 0.02 0.02 0.02 0.02 0.02 0.03 0.02 0.01 0.01 0.00 0.00 0.00 0.01 0.00 0.01 0.01 0.01 0.01 0.01 0.01 0.01 0.01 0.01 0.01 0.01 0.01 0.01 0.01 0.01 0.00 0.00
0.10 0.09 0.09 0.08 0.08 0.06 0.05 0.04 0.03 0.03 0.02 0.02 0.02 0.01 0.01 0.02 0.02 0.03 0.04 0.02 0.01 0.00 0.00 0.00 0.01 0.01 0.01 0.01 0.01 0.00 0.00 0.00 0.00 0.00 0.00 0.00 0.00 0.00 0.00 0.01 0.00 0.00 0.00 0.00
0.11 0.11 0.10 0.08 0.07 0.05 0.04 0.04 0.04 0.04 0.03 0.02 0.02 0.01 0.01 0.01 0.01 0.02 0.03 0.02 0.01 0.01 0.01 0.00 0.00 0.00 0.01 0.01 0.01 0.02 0.01 0.01 0.00 0.00 0.00 0.00 0.00 0.00 0.00 0.00 0.00 0.00 0.00 0.00
MSLP
998.38 998.77 999.11 999.43 999.73 1000.01 1000.26 1000.45 1000.58 1000.61 1000.55 1000.43 1000.27 1000.12 1000.06 1000.11 1000.33 1000.73 1001.29 1001.99 1002.79 1003.62 1004.44 1005.20 1005.89 1006.49 1007.01 1007.48 1007.91 1008.33 1008.77 1009.22 1009.71 1010.21 1010.72 1011.24 1011.75 1012.25 1012.74 1013.20 1013.65 1014.07 1014.46 1014.81
998.93 999.24 999.42 999.48 999.47 999.41 999.33 999.27 999.22 999.18 999.17 999.18 999.21 999.30 999.44 999.67 999.99 1000.42 1000.96 1001.59 1002.29 1003.02 1003.77 1004.50 1005.19 1005.84 1006.43 1006.97 1007.48 1007.97 1008.45 1008.92 1009.41 1009.90 1010.41 1010.93 1011.45 1011.97 1012.48 1012.97 1013.44 1013.87 1014.27 1014.63
999.73 999.98 1000.02 999.88 999.60 999.26 998.91 998.61 998.40 998.28 998.28 998.36 998.52 998.75 999.03 999.35 999.72 1000.13 1000.60 1001.13 1001.71 1002.34 1003.00 1003.69 1004.39 1005.08 1005.75 1006.39 1007.00 1007.57 1008.12 1008.64 1009.15 1009.65 1010.15 1010.65 1011.16 1011.68 1012.19 1012.69 1013.17 1013.61 1014.01 1014.36
1000.61 1000.81 1000.75 1000.47 1000.01 999.47 998.92 998.46 998.12 997.94 997.91 998.02 998.24 998.54 998.86 999.20 999.55 999.89 1000.25 1000.65 1001.09 1001.60 1002.17 1002.82 1003.52 1004.26 1005.01 1005.76 1006.48 1007.15 1007.78 1008.36 1008.90 1009.41 1009.90 1010.39 1010.88 1011.37 1011.87 1012.36 1012.83 1013.26 1013.66 1014.00
1001.32 1001.48 1001.36 1001.00 1000.46 999.82 999.19 998.64 998.24 998.02 997.98 998.10 998.33 998.62 998.92 999.22 999.47 999.70 999.92 1000.16 1000.46 1000.84 1001.33 1001.93 1002.63 1003.41 1004.24 1005.09 1005.91 1006.69 1007.41 1008.05 1008.63 1009.15 1009.63 1010.10 1010.56 1011.02 1011.49 1011.95 1012.40 1012.83 1013.21 1013.55
1001.62 1001.74 1001.60 1001.24 1000.70 1000.08 999.46 998.94 998.56 998.35 998.32 998.43 998.64 998.89 999.13 999.33 999.46 999.55 999.61 999.70 999.85 1000.10 1000.50 1001.05 1001.75 1002.56 1003.46 1004.39 1005.31 1006.18 1006.97 1007.68 1008.29 1008.83 1009.31 1009.76 1010.19 1010.62 1011.05 1011.48 1011.91 1012.32 1012.70 1013.04
1001.40 1001.46 1001.33 1001.02 1000.57 1000.06 999.56 999.15 998.86 998.73 998.73 998.85 999.04 999.23 999.38 999.46 999.46 999.40 999.31 999.24 999.26 999.40 999.72 1000.22 1000.90 1001.73 1002.67 1003.66 1004.65 1005.59 1006.45 1007.21 1007.86 1008.42 1008.90 1009.34 1009.75 1010.15 1010.56 1010.97 1011.39 1011.79 1012.17 1012.52
1000.65 1000.65 1000.55 1000.33 1000.03 999.70 999.40 999.17 999.04 999.02 999.10 999.25 999.41 999.54 999.60 999.57 999.43 999.23 999.01 998.81 998.72 998.77 999.01 999.46 1000.12 1000.94 1001.89 1002.91 1003.94 1004.93 1005.84 1006.63 1007.32 1007.90 1008.40 1008.84 1009.25 1009.65 1010.05 1010.46 1010.87 1011.28 1011.67 1012.03
999.51 999.47 999.40 999.31 999.20 999.10 999.03 999.02 999.09 999.22 999.39 999.57 999.71 999.79 999.76 999.61 999.37 999.06 998.72 998.43 998.25 998.24 998.42 998.82 999.44 1000.24 1001.17 1002.19 1003.23 1004.23 1005.15 1005.98 1006.69 1007.30 1007.83 1008.29 1008.72 1009.14 1009.55 1009.97 1010.40 1010.83 1011.24 1011.62
998.26 998.19 998.18 998.23 998.32 998.46 998.64 998.87 999.12 999.39 999.64 999.85 999.97 999.99 999.88 999.65 999.31 998.92 998.51 998.16 997.93 997.86 998.00 998.36 998.93 999.68 1000.57 1001.55 1002.56 1003.54 1004.46 1005.30 1006.03 1006.68 1007.24 1007.75 1008.22 1008.67 1009.12 1009.57 1010.02 1010.48 1010.91 1011.32
997.19 997.12 997.20 997.40 997.70 998.06 998.47 998.89 999.31 999.69 999.99 1000.20 1000.29 1000.24 1000.05 999.75 999.35 998.90 998.46 998.08 997.82 997.74 997.85 998.16 998.68 999.36 1000.19 1001.09 1002.04 1002.97 1003.86 1004.68 1005.43 1006.11 1006.71 1007.27 1007.80 1008.30 1008.80 1009.30 1009.78 1010.26 1010.72 1011.15
996.56 996.56 996.75 997.11 997.59 998.15 998.74 999.31 999.83 1000.27 1000.59 1000.77 1000.79 1000.66 1000.40 1000.03 999.58 999.11 998.66 998.28 998.04 997.95 998.04 998.32 998.77 999.38 1000.11 1000.92 1001.77 1002.63 1003.46 1004.26 1005.00 1005.69 1006.34 1006.95 1007.53 1008.10 1008.65 1009.19 1009.71 1010.21 1010.68 1011.11
996.51 996.61 996.95 997.46 998.11 998.82 999.54 1000.21 1000.78 1001.22 1001.50 1001.61 1001.55 1001.34 1001.01 1000.58 1000.11 999.63 999.20 998.85 998.63 998.55 998.64 998.88 999.27 999.79 1000.41 1001.11 1001.85 1002.60 1003.36 1004.10 1004.82 1005.52 1006.19 1006.84 1007.47 1008.09 1008.68 1009.25 1009.80 1010.31 1010.78 1011.20
997.00 997.26 997.75 998.42 999.20 1000.03 1000.83 1001.54 1002.11 1002.51 1002.73 1002.75 1002.60 1002.31 1001.91 1001.45 1000.96 1000.50 1000.11 999.81 999.62 999.57 999.66 999.87 1000.19 1000.62 1001.13 1001.70 1002.31 1002.95 1003.61 1004.28 1004.96 1005.64 1006.31 1006.99 1007.65 1008.29 1008.91 1009.50 1010.05 1010.55 1011.00 1011.39
997.89 998.32 998.98 999.78 1000.68 1001.59 1002.43 1003.14 1003.69 1004.03 1004.17 1004.11 1003.88 1003.52 1003.08 1002.60 1002.13 1001.71 1001.36 1001.12 1000.99 1000.97 1001.06 1001.24 1001.51 1001.84 1002.23 1002.67 1003.15 1003.67 1004.22 1004.80 1005.41 1006.05 1006.71 1007.38 1008.05 1008.70 1009.32 1009.90 1010.44 1010.91 1011.33 1011.68
998.96 999.57 1000.36 1001.28 1002.27 1003.22 1004.08 1004.79 1005.29 1005.58 1005.66 1005.54 1005.25 1004.86 1004.41 1003.95 1003.52 1003.16 1002.88 1002.71 1002.64 1002.65 1002.75 1002.91 1003.12 1003.36 1003.64 1003.96 1004.30 1004.69 1005.13 1005.62 1006.15 1006.73 1007.35 1007.99 1008.63 1009.27 1009.87 1010.42 1010.93 1011.36 1011.74 1012.05
1000.00 1000.74 1001.64 1002.65 1003.69 1004.67 1005.54 1006.23 1006.71 1006.97 1007.02 1006.88 1006.58 1006.20 1005.78 1005.37 1005.01 1004.73 1004.53 1004.44 1004.43 1004.48 1004.59 1004.73 1004.88 1005.05 1005.23 1005.44 1005.67 1005.94 1006.26 1006.65 1007.09 1007.60 1008.16 1008.75 1009.36 1009.95 1010.51 1011.02 1011.48 1011.87 1012.20 1012.47
1000.87 1001.69 1002.65 1003.70 1004.76 1005.75 1006.62 1007.30 1007.78 1008.05 1008.10 1007.99 1007.74 1007.41 1007.06 1006.74 1006.47 1006.28 1006.18 1006.16 1006.21 1006.30 1006.42 1006.54 1006.66 1006.76 1006.87 1006.97 1007.10 1007.27 1007.50 1007.79 1008.15 1008.58 1009.07 1009.60 1010.15 1010.69 1011.20 1011.66 1012.07 1012.42 1012.71 1012.95
1001.52 1002.35 1003.32 1004.36 1005.41 1006.39 1007.25 1007.94 1008.44 1008.73 1008.84 1008.79 1008.63 1008.40 1008.16 1007.94 1007.78 1007.69 1007.68 1007.73 1007.83 1007.96 1008.09 1008.20 1008.29 1008.36 1008.40 1008.44 1008.49 1008.58 1008.73 1008.95 1009.24 1009.60 1010.02 1010.48 1010.97 1011.45 1011.90 1012.32 1012.68 1012.99 1013.25 1013.47
1002.03 1002.82 1003.74 1004.73 1005.73 1006.68 1007.52 1008.21 1008.73 1009.08 1009.26 1009.30 1009.25 1009.14 1009.02 1008.92 1008.87 1008.88 1008.95 1009.06 1009.21 1009.37 1009.51 1009.62 1009.70 1009.74 1009.75 1009.75 1009.76 1009.80 1009.90 1010.06 1010.29 1010.59 1010.95 1011.36 1011.79 1012.21 1012.62 1012.99 1013.32 1013.60 1013.84 1014.05
1002.54 1003.25 1004.08 1004.98 1005.90 1006.78 1007.58 1008.27 1008.81 1009.20 1009.45 1009.59 1009.65 1009.66 1009.65 1009.67 1009.72 1009.81 1009.95 1010.12 1010.30 1010.48 1010.64 1010.76 1010.83 1010.87 1010.87 1010.86 1010.86 1010.88 1010.95 1011.08 1011.28 1011.54 1011.86 1012.22 1012.60 1012.99 1013.36 1013.70 1014.00 1014.27 1014.50 1014.70
1003.19 1003.79 1004.50 1005.28 1006.09 1006.89 1007.63 1008.27 1008.81 1009.23 1009.54 1009.76 1009.90 1010.01 1010.10 1010.21 1010.34 1010.50 1010.69 1010.90 1011.11 1011.31 1011.49 1011.62 1011.71 1011.76 1011.78 1011.79 1011.80 1011.83 1011.91 1012.03 1012.22 1012.46 1012.75 1013.08 1013.43 1013.79 1014.13 1014.46 1014.75 1015.01 1015.24 1015.44
1004.06 1004.55 1005.13 1005.78 1006.46 1007.15 1007.79 1008.37 1008.88 1009.29 1009.62 1009.88 1010.09 1010.26 1010.43 1010.60 1010.78 1010.99 1011.22 1011.45 1011.69 1011.91 1012.10 1012.26 1012.38 1012.47 1012.53 1012.57 1012.62 1012.68 1012.78 1012.92 1013.11 1013.35 1013.64 1013.95 1014.29 1014.63 1014.97 1015.28 1015.57 1015.83 1016.07 1016.27
1005.17 1005.55 1006.00 1006.52 1007.06 1007.61 1008.14 1008.63 1009.07 1009.45 1009.77 1010.04 1010.27 1010.48 1010.68 1010.89 1011.11 1011.34 1011.59 1011.85 1012.10 1012.34 1012.56 1012.75 1012.91 1013.05 1013.16 1013.26 1013.35 1013.47 1013.61 1013.78 1013.99 1014.24 1014.53 1014.85 1015.18 1015.52 1015.86 1016.18 1016.47 1016.74 1016.98 1017.19
1006.44 1006.73 1007.07 1007.45 1007.86 1008.27 1008.67 1009.05 1009.40 1009.71 1009.99 1010.24 1010.47 1010.69 1010.90 1011.13 1011.37 1011.62 1011.88 1012.16 1012.43 1012.69 1012.94 1013.17 1013.38 1013.56 1013.73 1013.89 1014.05 1014.22 1014.41 1014.62 1014.86 1015.13 1015.44 1015.76 1016.10 1016.45 1016.79 1017.12 1017.43 1017.71 1017.95 1018.16
1007.76 1007.98 1008.22 1008.48 1008.76 1009.03 1009.31 1009.58 1009.83 1010.07 1010.29 1010.50 1010.71 1010.92 1011.15 1011.38 1011.62 1011.89 1012.16 1012.45 1012.74 1013.03 1013.31 1013.58 1013.83 1014.07 1014.30 1014.52 1014.74 1014.96 1015.20 1015.45 1015.73 1016.02 1016.34 1016.68 1017.03 1017.38 1017.74 1018.07 1018.39 1018.67 1018.92 1019.13
1009.00 1009.16 1009.32 1009.48 1009.64 1009.81 1009.97 1010.14 1010.30 1010.47 1010.64 1010.83 1011.02 1011.22 1011.44 1011.68 1011.94 1012.22 1012.51 1012.81 1013.11 1013.43 1013.73 1014.04 1014.33 1014.61 1014.89 1015.16 1015.43 1015.71 1015.99 1016.28 1016.58 1016.90 1017.23 1017.58 1017.94 1018.30 1018.65 1018.99 1019.31 1019.60 1019.85 1020.05
Thickness
5759 5760 5760 5759 5765 5771 5768 5768 5759 5762 5766 5768 5776 5780 5786 5788 5788 5786 5784 5783 5780 5776 5773 5770 5766 5764 5762 5759 5757 5754 5750 5747 5744 5743 5741 5740 5739 5738 5737 5736 5736 5735 5733 5732
5745 5755 5756 5755 5762 5767 5768 5771 5769 5765 5762 5772 5776 5781 5782 5783 5782 5780 5780 5780 5779 5776 5773 5768 5765 5763 5761 5758 5756 5754 5750 5747 5745 5743 5741 5740 5739 5738 5737 5736 5735 5734 5732 5731
5733 5747 5745 5740 5758 5761 5763 5768 5767 5758 5760 5767 5764 5768 5772 5777 5778 5778 5778 5779 5778 5776 5773 5768 5766 5764 5760 5758 5757 5753 5750 5748 5746 5744 5741 5740 5739 5738 5736 5735 5734 5732 5731 5729
5729 5725 5710 5745 5773 5771 5764 5764 5768 5765 5764 5761 5758 5766 5773 5775 5772 5772 5773 5773 5774 5774 5772 5769 5768 5765 5762 5759 5756 5753 5750 5748 5747 5744 5742 5741 5739 5737 5736 5734 5732 5730 5729 5728
5718 5711 5718 5741 5759 5763 5754 5750 5760 5754 5753 5755 5760 5763 5763 5769 5770 5768 5768 5769 5771 5773 5772 5770 5768 5766 5761 5757 5755 5752 5750 5748 5748 5746 5743 5740 5738 5737 5735 5733 5731 5729 5728 5726
5711 5701 5698 5722 5747 5763 5755 5734 5749 5750 5748 5749 5752 5741 5743 5758 5763 5763 5764 5766 5767 5770 5770 5767 5767 5766 5761 5758 5755 5752 5751 5750 5749 5747 5743 5740 5738 5736 5735 5732 5730 5728 5726 5725
5703 5699 5705 5721 5739 5746 5722 5720 5740 5744 5744 5743 5739 5737 5743 5751 5753 5756 5758 5760 5763 5764 5764 5764 5765 5763 5759 5757 5755 5755 5754 5751 5749 5746 5743 5741 5738 5736 5733 5730 5727 5725 5724 5723
5700 5691 5692 5720 5725 5716 5716 5731 5735 5736 5735 5733 5733 5736 5739 5740 5742 5747 5750 5753 5756 5757 5758 5760 5761 5759 5756 5755 5757 5755 5753 5750 5747 5745 5743 5741 5736 5733 5731 5728 5724 5722 5720 5719
5702 5696 5705 5714 5713 5718 5724 5722 5724 5723 5725 5726 5725 5726 5729 5731 5733 5738 5742 5745 5749 5752 5752 5754 5756 5755 5752 5753 5755 5753 5750 5747 5744 5742 5740 5739 5735 5731 5728 5725 5722 5720 5718 5715
5693 5695 5702 5707 5711 5713 5715 5715 5717 5718 5718 5718 5717 5718 5719 5722 5724 5728 5733 5737 5741 5744 5744 5746 5748 5749 5749 5751 5751 5748 5745 5743 5740 5737 5734 5733 5731 5728 5724 5721 5719 5718 5715 5712
5685 5687 5691 5693 5698 5703 5706 5709 5710 5711 5709 5709 5708 5709 5710 5711 5715 5719 5724 5729 5734 5736 5738 5740 5742 5743 5745 5746 5746 5742 5740 5738 5735 5732 5730 5725 5722 5720 5719 5716 5716 5714 5713 5710
5671 5680 5683 5682 5690 5696 5696 5697 5699 5698 5697 5699 5700 5700 5701 5703 5706 5710 5715 5720 5725 5729 5732 5734 5736 5738 5740 5742 5740 5737 5733 5731 5730 5727 5723 5720 5716 5711 5707 5707 5706 5705 5703 5701
5673 5677 5680 5680 5683 5685 5686 5687 5689 5689 5688 5688 5689 5691 5692 5694 5698 5702 5706 5710 5715 5719 5723 5726 5728 5730 5733 5734 5733 5731 5728 5725 5724 5721 5718 5715 5712 5707 5701 5696 5695 5693 5691 5689
5670 5671 5668 5669 5671 5674 5677 5679 5680 5679 5679 5680 5681 5682 5684 5686 5688 5691 5694 5699 5704 5709 5712 5715 5717 5719 5723 5725 5724 5722 5720 5717 5715 5714 5713 5710 5707 5703 5700 5695 5690 5685 5680 5677
5660 5662 5660 5662 5664 5665 5667 5669 5669 5668 5668 5670 5671 5672 5674 5675 5676 5679 5683 5689 5693 5696 5699 5702 5705 5706 5712 5714 5713 5711 5709 5708 5707 5706 5705 5702 5699 5696 5693 5689 5684 5679 5674 5668
5650 5653 5654 5653 5654 5656 5657 5657 5657 5658 5659 5660 5661 5662 5663 5665 5667 5669 5673 5677 5679 5681 5684 5688 5690 5694 5699 5701 5701 5700 5697 5696 5696 5696 5694 5691 5689 5685 5682 5678 5674 5669 5666 5662
5640 5640 5642 5643 5646 5647 5648 5649 5649 5650 5652 5652 5653 5654 5654 5656 5657 5658 5660 5664 5666 5668 5671 5673 5676 5681 5685 5687 5688 5688 5687 5685 5683 5682 5680 5679 5676 5673 5670 5667 5663 5658 5652 5648
5635 5636 5636 5637 5638 5639 5641 5642 5643 5644 5643 5644 5645 5645 5645 5645 5645 5647 5649 5652 5654 5655 5658 5660 5663 5667 5670 5672 5673 5675 5674 5673 5671 5668 5666 5664 5662 5660 5658 5654 5650 5645 5640 5636
5629 5629 5630 5631 5631 5632 5633 5634 5634 5634 5635 5635 5635 5634 5635 5636 5636 5638 5639 5640 5641 5641 5643 5647 5649 5653 5655 5657 5659 5661 5661 5659 5657 5654 5652 5649 5649 5647 5643 5640 5635 5631 5628 5624
5619 5621 5622 5623 5624 5624 5624 5625 5625 5625 5625 5626 5625 5625 5625 5626 5627 5628 5629 5629 5629 5630 5632 5634 5637 5639 5640 5642 5643 5646 5645 5644 5642 5640 5639 5637 5634 5632 5629 5626 5621 5618 5614 5610
5609 5611 5612 5614 5615 5616 5617 5617 5617 5617 5617 5617 5616 5616 5617 5618 5620 5620 5620 5618 5618 5620 5622 5623 5625 5626 5627 5628 5631 5632 5631 5630 5630 5628 5626 5623 5620 5617 5614 5611 5607 5604 5600 5595
5601 5602 5603 5605 5606 5607 5608 5610 5610 5610 5610 5609 5610 5610 5609 5609 5610 5610 5610 5610 5610 5611 5614 5615 5615 5613 5615 5618 5619 5619 5617 5616 5615 5615 5612 5609 5607 5604 5600 5597 5594 5590 5585 5581
5594 5595 5595 5596 5597 5599 5600 5601 5602 5603 5602 5602 5602 5603 5603 5603 5604 5604 5601 5603 5604 5603 5605 5604 5602 5603 5604 5608 5607 5606 5605 5603 5602 5601 5598 5596 5594 5591 5587 5583 5579 5574 5570 5566
5586 5588 5588 5589 5590 5591 5591 5592 5594 5595 5595 5595 5595 5596 5596 5596 5595 5596 5595 5593 5594 5595 5595 5593 5593 5593 5595 5597 5596 5594 5592 5590 5588 5586 5584 5581 5578 5575 5571 5567 5563 5559 5554 5550
5577 5579 5580 5581 5582 5582 5583 5585 5586 5587 5588 5588 5588 5589 5590 5589 5588 5587 5587 5586 5585 5587 5587 5584 5584 5584 5585 5585 5584 5581 5579 5576 5575 5572 5569 5565 5561 5557 5554 5550 5546 5543 5539 5535
5568 5570 5570 5572 5574 5575 5576 5578 5578 5579 5580 5579 5580 5580 5581 5581 5580 5579 5579 5578 5578 5577 5577 5577 5576 5574 5573 5572 5570 5568 5565 5563 5561 5557 5553 5549 5545 5541 5538 5534 5531 5527 5523 5519
5562 5563 5564 5565 5566 5567 5569 5569 5570 5570 5570 5570 5570 5570 5570 5570 5570 5570 5570 5569 5568 5567 5566 5565 5563 5561 5560 5558 5555 5552 5550 5547 5544 5541 5537 5533 5530 5526 5523 5519 5516 5512 5507 5503